EW2704 Weather Reports


time (UTC)temp
F
wind
direction
speed
knots
gust
knots
rain 1hr
in
rain 24hr
in
rain mn
in
humidity
%
barometer
mb
20260506143902 56 158 0.0 1.7 0.00 0.00 0.00 57 1006.1
20260506142902 55 158 0.0 2.6 0.00 0.00 0.00 58 1006.2
20260506142403 55 158 0.0 2.6 0.00 0.00 0.00 59 1006.2
20260506141903 55 158 0.0 0.0 0.00 0.00 0.00 59 1006.2
20260506141403 55 158 0.0 0.0 0.00 0.00 0.00 59 1006.3
20260506140903 55 158 0.0 0.0 0.00 0.00 0.00 60 1006.4
20260506140403 54 158 0.0 1.7 0.00 0.00 0.00 62 1006.2
20260506135902 54 158 0.9 1.7 0.00 0.00 0.00 62 1006.2
20260506134903 53 158 0.9 2.6 0.00 0.00 0.00 63 1006.2
20260506133402 52 158 0.0 0.0 0.00 0.00 0.00 64 1006.1
20260506132903 52 158 0.0 0.0 0.00 0.00 0.00 64 1006.1
20260506132403 51 158 0.0 0.0 0.00 0.00 0.00 65 1005.9
20260506131902 51 158 0.0 0.0 0.00 0.00 0.00 64 1005.9
20260506131403 51 158 0.0 0.0 0.00 0.00 0.00 62 1005.8
20260506130903 51 158 0.0 0.0 0.00 0.00 0.00 63 1005.7
20260506130403 51 158 0.0 0.9 0.00 0.00 0.00 66 1005.6
20260506125403 51 158 0.0 0.0 0.00 0.00 0.00 66 1005.6
20260506124903 51 158 0.0 0.0 0.00 0.00 0.00 64 1005.6
20260506123903 51 158 0.0 0.0 0.00 0.00 0.00 63 1005.6
20260506122903 51 158 0.0 0.0 0.00 0.00 0.00 62 1005.5
20260506122402 51 158 0.0 0.0 0.00 0.00 0.00 61 1005.5
20260506121903 51 158 0.0 0.0 0.00 0.00 0.00 60 1005.4
20260506121403 51 158 0.0 0.0 0.00 0.00 0.00 60 1005.3
20260506120903 51 158 0.0 0.0 0.00 0.00 0.00 60 1005.3
20260506120403 51 158 0.0 0.0 0.00 0.00 0.00 60 1005.3
20260506115902 52 158 0.0 0.0 0.00 0.00 0.00 60 1005.4
20260506115403 52 158 0.0 0.0 0.00 0.00 0.00 60 1005.2
20260506114903 52 158 0.0 0.0 0.00 0.00 0.00 60 1005.2
20260506114402 52 158 0.0 0.0 0.00 0.00 0.00 59 1005.2
20260506113903 52 158 0.0 0.0 0.00 0.00 0.00 58 1005.2
20260506113402 53 158 0.0 0.0 0.00 0.00 0.00 58 1005.2
20260506112903 53 158 0.0 0.0 0.00 0.00 0.00 57 1005.3
20260506112402 53 158 0.0 0.0 0.00 0.00 0.00 56 1005.2
20260506111903 53 158 0.0 0.0 0.00 0.00 0.00 56 1005.1
20260506110403 54 158 0.0 0.0 0.00 0.00 0.00 56 1005.0
20260506105903 54 158 0.0 0.0 0.00 0.00 0.00 56 1004.9
20260506103902 54 158 0.0 0.0 0.00 0.00 0.00 53 1004.8
20260506103403 54 158 0.0 0.0 0.00 0.00 0.00 52 1004.8
20260506102902 55 158 0.0 0.0 0.00 0.00 0.00 53 1004.9
20260506102403 55 158 0.0 0.0 0.00 0.00 0.00 53 1004.9
20260506101902 55 158 0.0 0.0 0.00 0.00 0.00 53 1004.9
20260506101403 55 158 0.0 0.0 0.00 0.00 0.00 53 1004.8
20260506100403 56 158 0.0 0.0 0.00 0.00 0.00 52 1004.6
20260506095902 56 158 1.7 4.3 0.00 0.00 0.00 52 1004.5
20260506094902 56 158 0.0 0.0 0.00 0.00 0.00 50 1004.4
20260506094403 56 158 0.0 0.0 0.00 0.00 0.00 49 1004.4
20260506093902 56 158 0.0 0.9 0.00 0.00 0.00 50 1004.4
20260506093403 56 158 0.0 0.0 0.00 0.00 0.00 49 1004.4
20260506092903 56 158 0.0 0.0 0.00 0.00 0.00 50 1004.3
20260506092403 56 93 0.0 0.0 0.00 0.00 0.00 50 1004.3
20260506091902 56 93 0.0 0.0 0.00 0.00 0.00 51 1004.3
20260506091403 56 93 0.0 0.0 0.00 0.00 0.00 51 1004.3
20260506090903 56 93 0.0 0.0 0.00 0.00 0.00 52 1004.3
20260506085903 57 93 0.0 0.0 0.00 0.00 0.00 52 1004.3
20260506084903 57 93 0.0 0.0 0.00 0.00 0.00 50 1004.3
20260506084403 57 93 0.0 0.0 0.00 0.00 0.00 48 1004.3
20260506082903 58 93 0.0 0.0 0.00 0.00 0.00 48 1004.3
20260506082403 58 93 0.0 0.0 0.00 0.00 0.00 48 1004.3
20260506081902 58 93 0.0 0.0 0.00 0.00 0.00 48 1004.2
20260506081403 58 93 0.0 0.0 0.00 0.00 0.00 47 1004.1
20260506080902 58 93 0.0 0.0 0.00 0.00 0.00 47 1004.1
20260506080403 59 93 0.0 0.0 0.00 0.00 0.00 47 1004.3
20260506073403 59 93 0.0 0.0 0.00 0.00 0.00 46 1004.1
20260506072903 59 93 0.0 0.0 0.00 0.00 0.00 46 1003.9
20260506071402 60 93 0.0 1.7 0.00 0.00 0.00 46 1003.9
20260506070903 60 93 0.0 0.0 0.00 0.00 0.00 47 1003.9
20260506070403 60 93 0.0 0.0 0.00 0.00 0.00 47 1003.9
20260506062403 62 93 0.0 0.0 0.00 0.00 0.00 44 1003.4
20260506061403 62 93 0.0 0.0 0.00 0.00 0.00 43 1003.4
20260506060404 63 93 0.0 0.0 0.00 0.00 0.00 41 1003.6
20260506051403 66 93 0.0 0.0 0.00 0.00 0.00 38 1003.2
20260506050904 66 93 0.0 0.0 0.00 0.00 0.00 37 1003.1
20260506050403 66 93 0.0 0.0 0.00 0.00 0.00 36 1003.1
20260506044403 68 93 0.0 0.0 0.00 0.00 0.00 35 1002.9
20260506043903 68 93 0.0 0.0 0.00 0.00 0.00 34 1002.8
20260506043403 69 93 0.0 0.0 0.00 0.00 0.00 34 1002.7
20260506042402 69 93 0.0 0.0 0.00 0.00 0.00 34 1002.7
20260506041903 70 93 0.0 0.0 0.00 0.00 0.00 33 1002.6
20260506041403 70 93 0.0 0.0 0.00 0.00 0.00 32 1002.6
20260506040903 71 93 0.0 0.0 0.00 0.00 0.00 31 1002.5
20260506040403 71 93 0.0 0.0 0.00 0.00 0.00 30 1002.6
20260506035903 72 93 0.0 0.0 0.00 0.00 0.00 29 1002.6
20260506035403 72 93 0.0 0.0 0.00 0.00 0.00 28 1002.5
20260506033903 74 93 0.0 0.0 0.00 0.00 0.00 26 1002.3
20260506033403 74 93 0.0 0.0 0.00 0.00 0.00 26 1002.2
20260506032403 75 93 0.0 0.0 0.00 0.00 0.00 25 1002.1
20260506031903 76 93 0.0 0.0 0.00 0.00 0.00 25 1002.0
20260506031402 76 93 0.0 0.0 0.00 0.00 0.00 25 1002.0
20260506030903 77 93 0.0 0.0 0.00 0.00 0.00 24 1002.0
20260506030403 77 93 0.0 0.0 0.00 0.00 0.00 23 1002.2
20260506025903 78 93 0.0 0.0 0.00 0.00 0.00 23 1002.2
20260506025403 78 93 0.0 0.0 0.00 0.00 0.00 23 1002.2
20260506024903 79 93 0.0 0.9 0.00 0.00 0.00 22 1002.2
20260506024403 79 93 0.0 0.9 0.00 0.00 0.00 22 1002.1
20260506023903 79 86 0.0 0.9 0.00 0.00 0.00 22 1002.1
20260506023403 79 44 0.0 0.9 0.00 0.00 0.00 22 1002.2
20260506022903 80 50 0.0 2.6 0.00 0.00 0.00 22 1002.2
20260506021902 80 31 0.9 4.3 0.00 0.00 0.00 21 1002.2
20260506021403 81 8 0.9 2.6 0.00 0.00 0.00 21 1002.2
20260506020403 81 355 0.9 5.2 0.00 0.00 0.00 21 1002.3
20260506015403 82 114 0.0 5.2 0.00 0.00 0.00 20 1002.4
20260506014403 82 0 0.0 2.6 0.00 0.00 0.00 20 1002.4
20260506013403 82 75 0.0 1.7 0.00 0.00 0.00 20 1002.4
20260506012403 82 192 0.9 2.6 0.00 0.00 0.00 20 1002.5
20260506011903 82 102 0.0 2.6 0.00 0.00 0.00 19 1002.5
20260506010903 83 84 0.9 4.3 0.00 0.00 0.00 18 1002.6
20260506010403 83 91 0.0 1.7 0.00 0.00 0.00 19 1002.8
20260506005403 83 111 0.0 0.9 0.00 0.00 0.00 19 1002.9
20260506004903 84 94 0.9 4.3 0.00 0.00 0.00 18 1002.9
20260506004403 84 100 0.9 5.2 0.00 0.00 0.00 18 1002.9
20260506003403 84 93 0.0 0.9 0.00 0.00 0.00 19 1003.0
20260506002902 84 150 0.0 0.9 0.00 0.00 0.00 18 1003.0
20260506002404 84 25 0.0 2.6 0.00 0.00 0.00 18 1003.1
20260506001903 83 158 0.0 4.3 0.00 0.00 0.00 20 1003.1
20260506001403 83 126 0.0 0.9 0.00 0.00 0.00 19 1003.2
20260506000903 83 82 0.0 6.1 0.00 0.00 0.00 19 1003.4
20260506000403 83 46 0.0 2.6 0.00 0.00 0.00 19 1003.4
20260505235402 83 128 0.0 1.7 0.00 0.00 0.00 18 1003.5
20260505234903 83 98 0.0 5.2 0.00 0.00 0.00 18 1003.5
20260505234403 83 96 0.0 2.6 0.00 0.00 0.00 19 1003.6
20260505233903 83 112 0.0 2.6 0.00 0.00 0.00 20 1003.6
20260505233403 83 98 0.0 4.3 0.00 0.00 0.00 20 1003.6
20260505232903 83 91 1.7 7.0 0.00 0.00 0.00 20 1003.7
20260505232403 82 15 0.0 0.9 0.00 0.00 0.00 20 1003.8
20260505231903 82 99 0.0 4.3 0.00 0.00 0.00 19 1003.9
20260505231403 83 88 0.9 5.2 0.00 0.00 0.00 19 1004.0
20260505230903 83 83 0.0 5.2 0.00 0.00 0.00 20 1004.0
20260505225904 82 86 0.0 2.6 0.00 0.00 0.00 19 1004.0
20260505225403 82 103 0.0 2.6 0.00 0.00 0.00 19 1004.0
20260505224403 82 57 0.0 2.6 0.00 0.00 0.00 20 1004.2
20260505223903 81 29 0.0 1.7 0.00 0.00 0.00 20 1004.4
20260505223403 81 106 0.9 4.3 0.00 0.00 0.00 20 1004.5
20260505222903 81 96 0.9 7.0 0.00 0.00 0.00 20 1004.5
20260505222403 81 33 1.7 6.1 0.00 0.00 0.00 20 1004.5
20260505221903 81 92 1.7 6.1 0.00 0.00 0.00 20 1004.5
20260505220903 81 100 0.9 6.1 0.00 0.00 0.00 20 1004.6
20260505220403 81 120 0.0 7.0 0.00 0.00 0.00 21 1004.5
20260505215903 81 51 2.6 7.0 0.00 0.00 0.00 20 1004.6
20260505215404 81 109 0.0 5.2 0.00 0.00 0.00 22 1004.7
20260505214903 81 64 0.0 5.2 0.00 0.00 0.00 22 1004.8
20260505214403 81 81 2.6 7.0 0.00 0.00 0.00 22 1004.9
20260505213903 80 77 0.9 7.0 0.00 0.00 0.00 21 1004.9
20260505213403 80 144 1.7 6.1 0.00 0.00 0.00 22 1004.9
20260505212903 80 107 0.9 4.3 0.00 0.00 0.00 21 1005.0
20260505212403 80 284 1.7 5.2 0.00 0.00 0.00 22 1005.0
20260505211903 80 129 0.9 4.3 0.00 0.00 0.00 22 1005.1
20260505211403 79 159 0.9 4.3 0.00 0.00 0.00 22 1005.4
20260505210404 79 49 0.9 4.3 0.00 0.00 0.00 23 1005.3
20260505205903 79 80 0.0 5.2 0.00 0.00 0.00 22 1005.4
20260505205403 79 108 2.6 6.1 0.00 0.00 0.00 22 1005.4
20260505204902 79 67 2.6 6.1 0.00 0.00 0.00 22 1005.5
20260505204403 79 73 1.7 6.1 0.00 0.00 0.00 22 1005.5
20260505203903 78 104 1.7 8.7 0.00 0.00 0.00 22 1005.5
20260505202903 78 77 0.9 4.3 0.00 0.00 0.00 23 1005.7
20260505202403 78 27 1.7 7.0 0.00 0.00 0.00 22 1005.9
20260505201903 78 89 1.7 7.0 0.00 0.00 0.00 22 1005.9
20260505201403 77 119 3.5 8.7 0.00 0.00 0.00 22 1006.0
20260505200903 77 144 1.7 6.1 0.00 0.00 0.00 23 1006.0
20260505200403 77 121 2.6 7.0 0.00 0.00 0.00 23 1006.0
20260505195903 77 100 2.6 6.1 0.00 0.00 0.00 23 1006.0
20260505195403 77 78 2.6 8.7 0.00 0.00 0.00 22 1006.1
20260505194403 77 143 1.7 10.4 0.00 0.00 0.00 22 1006.2
20260505193903 76 71 2.6 6.1 0.00 0.00 0.00 22 1006.4
20260505193403 76 137 2.6 5.2 0.00 0.00 0.00 22 1006.4
20260505192403 76 88 1.7 6.1 0.00 0.00 0.00 22 1006.4
20260505191903 76 75 1.7 5.2 0.00 0.00 0.00 21 1006.5
20260505191403 75 103 1.7 7.0 0.00 0.00 0.00 21 1006.6
20260505190903 75 89 1.7 8.7 0.00 0.00 0.00 21 1006.7
20260505190403 75 96 2.6 8.7 0.00 0.00 0.00 21 1006.5
20260505185903 75 100 0.9 7.0 0.00 0.00 0.00 21 1006.5
20260505184903 74 63 2.6 5.2 0.00 0.00 0.00 22 1006.7
20260505184403 74 84 2.6 8.7 0.00 0.00 0.00 22 1006.8
20260505183903 73 56 1.7 4.3 0.00 0.00 0.00 22 1006.9
20260505183403 72 29 2.6 6.1 0.00 0.00 0.00 23 1007.0
20260505182904 72 82 1.7 5.2 0.00 0.00 0.00 23 1007.1
20260505181903 71 329 0.9 2.6 0.00 0.00 0.00 34 1007.1
20260505181403 71 338 1.7 5.2 0.00 0.00 0.00 32 1007.2
20260505180903 70 337 0.9 6.1 0.00 0.00 0.00 34 1007.2
20260505180403 70 336 1.7 5.2 0.00 0.00 0.00 38 1007.1
20260505175404 69 337 0.9 6.1 0.00 0.00 0.00 39 1007.1
20260505174404 69 311 0.0 4.3 0.00 0.00 0.00 38 1007.3
20260505173904 69 333 0.9 4.3 0.00 0.00 0.00 37 1007.4
20260505173403 69 330 0.9 2.6 0.00 0.00 0.00 36 1007.5
20260505172903 69 328 0.9 2.6 0.00 0.00 0.00 39 1007.5
20260505172404 69 321 0.0 4.3 0.00 0.00 0.00 39 1007.6
20260505171403 69 353 0.9 2.6 0.00 0.00 0.00 37 1007.6
20260505170903 69 333 0.9 2.6 0.00 0.00 0.00 37 1007.7
20260505170403 69 100 0.0 1.7 0.00 0.00 0.00 35 1007.5
20260505165904 69 93 0.0 4.3 0.00 0.00 0.00 34 1007.5
20260505165403 69 139 1.7 6.1 0.00 0.00 0.00 33 1007.5
20260505164904 68 121 0.9 2.6 0.00 0.00 0.00 34 1007.6
20260505164403 68 127 1.7 5.2 0.00 0.00 0.00 34 1007.6
20260505163903 68 142 0.9 2.6 0.00 0.00 0.00 34 1007.6
20260505163403 67 147 1.7 5.2 0.00 0.00 0.00 35 1007.6
20260505162903 67 143 1.7 4.3 0.00 0.00 0.00 36 1007.6
20260505162403 66 136 0.9 5.2 0.00 0.00 0.00 36 1007.7
20260505161903 66 123 1.7 6.1 0.00 0.00 0.00 38 1007.7
20260505161404 65 137 0.9 2.6 0.00 0.00 0.00 42 1007.7
20260505160404 64 134 0.0 0.0 0.00 0.00 0.00 43 1007.7
20260505152903 59 134 0.0 2.6 0.00 0.00 0.00 50 1008.1
20260505152403 58 134 0.0 1.7 0.00 0.00 0.00 52 1008.1
20260505151403 57 134 0.0 0.9 0.00 0.00 0.00 53 1008.2
20260505150904 56 134 0.0 0.9 0.00 0.00 0.00 54 1008.2
20260505150403 56 134 0.0 2.6 0.00 0.00 0.00 53 1008.1